Home   Weather   France   Paris   Past weeks
Flag for France

Past Weather in Paris, Paris, France — November 2018

Currently: 68 °F. Passing clouds. (Weather station: Villacoublay, France). See more current weather

November 2018 Weather in Paris — Graph

°F

High & Low Weather Summary for November 2018

 TemperatureHumidityPressure
High66 °F (Nov 5, 2:00 pm)100% (Nov 1, 4:00 pm)30.42 "Hg (Nov 1, 4:00 pm)
Low28 °F (Nov 21, 6:00 am)43% (Nov 3, 1:30 pm)29.56 "Hg (Nov 10, 3:00 am)
Average46 °F88%29.94 "Hg
* Reported Nov 1 12:00 am — Nov 30 11:30 pm, Paris. Weather by CustomWeather, © 2024

Note: Actual official high and low records may vary slightly from our data, if they occured in-between our weather recording intervals... More about our weather records

Paris Weather History for November 1, 2018

Scroll right to see more
 ConditionsComfort  
Time TempWeatherWind HumidityBarometerVisibility
12:00 am
Thu, Nov 1
50 °FClear.10 mph82%29.74 "Hg10 mi
12:30 am50 °FClear.10 mph82%29.74 "Hg10 mi
1:00 am50 °FClear.8 mph82%29.74 "Hg10 mi
1:30 am50 °FMostly cloudy.8 mph82%29.74 "HgN/A
3:00 am48 °FClear.7 mph82%29.71 "Hg10 mi
3:30 am48 °FClear.8 mph82%29.71 "Hg10 mi
4:00 am48 °FClear.8 mph82%29.71 "Hg10 mi
4:30 am48 °FClear.8 mph82%29.71 "Hg10 mi
5:00 am48 °FClear.7 mph76%29.71 "Hg10 mi
5:30 am48 °FClear.7 mph82%29.71 "Hg10 mi
6:00 am48 °FPassing clouds.8 mph82%29.74 "HgN/A
6:30 am48 °FPassing clouds.7 mph82%29.74 "HgN/A
7:00 am50 °FMostly cloudy.7 mph76%29.71 "HgN/A
7:30 am48 °FPassing clouds.6 mph82%29.71 "HgN/A
8:30 am48 °FPartly sunny.7 mph82%29.74 "HgN/A
9:00 am48 °FPartly sunny.9 mph82%29.74 "HgN/A
9:30 am48 °FPartly sunny.8 mph82%29.74 "HgN/A
10:00 am50 °FMostly cloudy.7 mph76%29.74 "HgN/A
10:30 am50 °FOvercast.8 mph82%29.74 "HgN/A
11:00 am52 °FMostly cloudy.10 mph77%29.77 "HgN/A
11:30 am52 °FOvercast.9 mph82%29.77 "HgN/A
12:00 pm50 °FOvercast.10 mph88%29.77 "HgN/A
12:30 pm50 °FLow clouds.9 mph94%29.77 "HgN/A
1:00 pm50 °FLow clouds.9 mph94%29.77 "HgN/A
1:30 pm50 °FMostly cloudy.7 mph94%29.77 "HgN/A
2:30 pm50 °FLight rain. Mostly cloudy.9 mph94%29.77 "HgN/A
3:00 pm50 °FLight rain. Fog.5 mph94%29.77 "Hg3 mi
3:30 pm50 °FLight rain. Mostly cloudy.5 mph94%29.77 "Hg4 mi
4:00 pm50 °FDrizzle. Low clouds.6 mph100%29.80 "HgN/A
4:30 pm50 °FMostly cloudy.7 mph100%29.80 "HgN/A
5:00 pm50 °FLight rain. Partly sunny.7 mph100%29.80 "Hg5 mi
5:30 pm50 °FPartly sunny.7 mph94%29.80 "HgN/A
6:00 pm50 °FMostly cloudy.7 mph94%29.83 "HgN/A
6:30 pm50 °FPartly cloudy.6 mph94%29.86 "HgN/A
7:00 pm50 °FRain. Fog.10 mph94%29.86 "Hg3 mi
7:30 pm48 °FOvercast.6 mph94%29.89 "HgN/A
8:00 pm48 °FLight rain. Partly cloudy.5 mph94%29.89 "HgN/A
8:30 pm48 °FMostly cloudy.3 mph94%29.89 "HgN/A
9:00 pm48 °FMostly cloudy.5 mph94%29.92 "HgN/A
9:30 pm48 °FClear.5 mph94%29.92 "Hg10 mi
10:00 pm48 °FClear.6 mph94%29.95 "Hg10 mi
10:30 pm46 °FOvercast.5 mph93%29.95 "HgN/A
11:00 pm46 °FOvercast.3 mph93%29.95 "HgN/A
11:30 pm46 °FClear.2 mph93%29.95 "Hg10 mi
Weather by CustomWeather, © 2024

See weather overview